ORS 1 (USA 231) is no longer on orbit ORS 1 (USA 231) is classified as:
1 37728U 11029A 18070.94866693 +.05582091 +68468-5 +66627-3 0 9994 2 37728 039.9667 174.4907 0005618 022.7001 337.5233 16.35398990380856